Greenville, ME

5:02 PM EDT on August 22, 2017 (GMT -0400)
Greenville

Weather History for KGNR - February, 2014

Change the Weather History Date:

Saturday, February 1, 2014

  Actual Average (KMLT) Record (KMLT)
Temperature  
Mean Temperature 26 °F -  
Max Temperature 34 °F 23 °F 51 °F (2016)
Min Temperature 19 °F 4 °F -27 °F (1955)
Degree Days  
Heating Degree Days 38    
Moisture  
Dew Point 15 °F    
Average Humidity 63    
Maximum Humidity 96    
Minimum Humidity 37    
Precipitation  
Precipitation 0.16 in - - ()
Sea Level Pressure  
Sea Level Pressure 30.16 in    
Wind  
Wind Speed 3 mph (SSE)    
Max Wind Speed 9 mph    
Max Gust Speed -    
Averages and records for this station are not official NWS values.
T = Trace of Precipitation, MM = Missing Value Source: NWS Daily Summary

Daily Weather History Graph

Daily Weather History Graph

Search for Another Location

Airport or City:

Trip Planner

Search our weather history database for the weather conditions in past years. The results will help you decide how hot, cold, wet, or windy it might be!

Date:

Astronomy

Feb. 01, 2014 Rise Set
Actual Time 6:59 AM EST 4:45 PM EST
Civil Twilight 6:27 AM EST 5:16 PM EST
Nautical Twilight 5:52 AM EST 5:52 PM EST
Astronomical Twilight 5:17 AM EST 6:26 PM EST
Moon 7:38 AM EST (2/1) 7:26 PM EST (2/1)
Length of Visible Light 10h 48m
Length of Day
9h 45m
Waxing Crescent, 5% of the Moon is Illuminated
Feb 1
Waxing Crescent
Feb 6
First Quarter
Feb 14
Full
Feb 22
Last Quarter
Mar 1
New

Hourly Weather History & Observations

Time (EST) Temp. Windchill Dew Point Humidity Pressure Visibility Wind Dir Wind Speed Gust Speed Precip Events Conditions
12:56 AM 25.0 °F - 15.1 °F 66% 30.09 in - Calm Calm - N/A   Unknown
1:56 AM 26.1 °F 18.4 °F 12.9 °F 58% 30.13 in - Variable 6.9 mph - N/A   Unknown
2:56 AM 25.0 °F 17.1 °F 12.0 °F 58% 30.14 in - Variable 6.9 mph - N/A   Unknown
3:56 AM 21.9 °F 17.2 °F 12.0 °F 66% 30.15 in - Variable 3.5 mph - N/A   Unknown
4:56 AM 21.0 °F 16.2 °F 10.9 °F 65% 30.18 in - Variable 3.5 mph - N/A   Unknown
5:56 AM 19.9 °F 14.9 °F 10.9 °F 68% 30.20 in - Variable 3.5 mph - N/A   Unknown
6:56 AM 19.0 °F - 10.9 °F 71% 30.24 in - Calm Calm - N/A   Unknown
7:56 AM 19.0 °F - 12.0 °F 74% 30.25 in - Calm Calm - N/A   Unknown
8:56 AM 24.1 °F - 12.9 °F 62% 30.26 in - Calm Calm - N/A   Unknown
9:56 AM 26.1 °F 21.9 °F 12.9 °F 58% 30.26 in - Variable 3.5 mph - N/A   Unknown
10:56 AM 28.9 °F - 12.0 °F 49% 30.25 in - Calm Calm - N/A   Unknown
11:56 AM 30.9 °F - 12.0 °F 46% 30.25 in - Calm Calm - N/A   Unknown
12:56 PM 33.1 °F 27.7 °F 9.0 °F 37% 30.23 in - Variable 5.8 mph - N/A   Unknown
1:56 PM 34.0 °F 29.8 °F 10.0 °F 37% 30.21 in - Variable 4.6 mph - N/A   Unknown
2:56 PM 33.1 °F 27.7 °F 12.0 °F 42% 30.19 in - South 5.8 mph - N/A   Unknown
3:56 PM 30.9 °F 22.8 °F 14.0 °F 50% 30.18 in - South 9.2 mph - N/A   Unknown
4:56 PM 30.0 °F 24.1 °F 14.0 °F 51% 30.16 in - SSE 5.8 mph - N/A   Unknown
5:56 PM 28.9 °F - 15.1 °F 56% 30.17 in - Calm Calm - N/A   Unknown
6:56 PM 28.9 °F 22.8 °F 16.0 °F 58% 30.12 in - Variable 5.8 mph - N/A   Unknown
7:56 PM 28.0 °F 21.7 °F 19.0 °F 69% 30.09 in - SSE 5.8 mph - N/A   Unknown
8:56 PM 27.0 °F 18.7 °F 21.9 °F 81% 30.06 in - South 8.1 mph - 0.01 in   Unknown
9:56 PM 26.1 °F 18.4 °F 24.1 °F 92% 30.02 in - SSE 6.9 mph - 0.04 in   Unknown
10:56 PM 26.1 °F 20.5 °F 25.0 °F 96% 29.97 in - Variable 4.6 mph - 0.05 in   Unknown
11:56 PM 27.0 °F 20.5 °F 25.0 °F 92% 29.93 in - SSE 5.8 mph - 0.06 in   Unknown